EHI
0 0 0 0 0 0 0 0 0 0 0 0 0 0 0 0 0 0 0 0 0 0 0 0 0 0 0 0 0 0 0 0 0 0 0 0 0 0 0 0 0 0 0
0 0 0 0 0 0 0 0 0 0 0 0 0 0 0 0 0 0 0 0 0 0 0 0 0 0 0 0 0 0 0 0 0 0 0 0 0 0 0 0 0 0 0
0 0 0 0 0 0 0 0 0 0 0 0 0 0 0 0 0 0 0 0 0 0 0 0 0 0 0 0 0 0 0 0 0 0 0 0 0 0 0 0 0 0 0
0 0 0 0 0 0 0 0 0 0 0 0 0 0 0 0 0 0 0 0 0 0 0 0 0 0 0 0 0 0 0 0 0 0 0 0 0 0 0 0 0 0 0
0 0 0 0 0 0 0 0 0 0 0 0 0 0 0 0 0 0 0 0 0 0 0 0 0 0 0 0 0 0 0 0 0 0 0 0 0 0 0 0 0 0 0
0 0 0 0 0 0 0 0 0 0 0 0 0 0 0 0 0 0 0 0 0 0 0 0 0 0 0 0 0 0 0 0 0 0 0 0 0 0 0 0 0 0 0
0 0 0 0 0 0 0 0 0 0 0 0 0 0 0 0 0 0 0 0 0 0 0 0 0 0 0 0 0 0 0 0 0 0 0 0 0 0 0 0 0 0 0
0 0 0 0 0 0 0 0 0 0 0 0 0 0 0 0 0 0 0 0 0 0 0 0 0 0 0 0 0 0 0 0 0 0 0 0 0 0 0 0 0 0 0
0 0 0 0 0 0 0 0 0 0 0 0 0 0 0 0 0 0 0 0 0 0 0 0 0 0 0 0 0 0 0 0 0 0 0 0 0 0 0 0 0 0 0
0 0 0 0 0 0 0 0 0 0 0 0 0 0 0 0 0 0 0 0 0 0 0 0 0 0 0 0 0 0 0 0 0 0 0 0 0 0 0 0 0 0 0
0 0 0 0 0 0 0 0 0 0 0 0 0 0 0 0 0 0 0 0 0 0 0 0 0 0 0 0 0 0 0 0 0 0 0 0 0 0 0 0 0 0 0
0 0 0 0 0 0 0 0 0 0 0 0 0 0 0 0 0 0 0 0 0 0 0 0 0 0 0 0 0 0 0 0 0 0 0 0 0 0 0 0 0 0 0
0 0 0 0 0 0 0 0 0 0 0 0 0 0 0 0 0 0 0 0 0 0 0 0 0 0 0 0 0 0 0 0 0 0 0 0 0 0 0 0 0 0 0
0 0 0 0 0 0 0 0 0 0 0 0 0 0 0 0 0 0 0 0 0 0 0 0 0 0 0 0 0 0 0 0 0 0 0 0 0 0 0 0 0 0 0
0 0 0 0 0 0 0 0 0 0 0 0 0 0 0 0 0 0 0 0 0 0 0 0 0 0 0 0 0 0 0 0 0 0 0 0 0 0 0 0 0 0 0
0 0 0 0 0 0 0 0 0 0 0 0 0 0 0 0 0 0 0 0 0 0 0 0 0 0 0 0 0 0 0 0 0 0 0 0 0 0 0 0 0 0 0
0 0 0 0 0 0 0 0 0 0 0 0 0 0 0 0 0 0 0 0 0 0 0 0 0 0 0 0 0 0 0 0 0 0 0 0 0 0 0 0 0 0 0
0 0 0 0 0 0 0 0 0 0 0 0 0 0 0 0 0 0 0 0 0 0 0 0 0 0 0 0 0 0 0 0 0 0 0 0 0 0 0 0 0 0 0
0 0 0 0 0 0 0 0 0 0 0 0 0 0 0 0 0 0 0 0 0 0 0 0 0 0 0 0 0 0 0 0 0 0 0 0 0 0 0 0 0 0 0
0 0 0 0 0 0 0 0 0 0 0 0 0 0 0 0 0 0 0 0 0 0 0 0 0 0 0 0 0 0 0 0 0 0 0 0 0 0 0 0 0 0 0
0 0 0 0 0 0 0 0 0 0 0 0 0 0 0 0 0 0 0 0 0 0 0 0 0 0 0 0 0 0 0 0 0 0 0 0 0 0 0 0 0 0 0
0 0 0 0 0 0 0 0 0 0 0 0 0 0 0 0 0 0 0 0 0 0 0 0 0 0 0 0 0 0 0 0 0 0 0 0 0 0 0 0 0 0 0
0 0 0 0 0 0 0 0 0 0 0 0 0 0 0 0 0 0 0 0 0 0 0 0 0 0 0 0 0 0 0 0 0 0 0 0 0 0 0 0 0 0 0
0 0 0 0 0 0 0 0 0 0 0 0 0 0 0 0 0 0 0 0 0 0 0 0 0 0 0 0 0 0 0 0 0 0 0 0 0 0 0 0 0 0 0
0 0 0 0 0 0 0 0 0 0 0 0 0 0 0 0 0 0 0 0 0 0 0 0 0 0 0 0 0 0 0 0 0 0 0 0 0 0 0 0 0 0 0
0 0 0 0 0 0 0 0 0 0 0 0 0 0 0 0 0 0 0 0 0 0 0 0 0 0 0 0 0 0 0 0 0 0 0 0 0 0 0 0 0 0 0
Wind_Speed
8 7 7 7 7 6 6 6 5 4 4 4 4 4 3 3 2 2 2 2 2 3 3 3 2 3 2 2 2 2 3 3 3 2 1 1 2 2 2 1 1 3 3
8 8 8 8 8 8 8 7 6 6 6 5 4 4 3 2 2 2 2 2 3 3 3 2 1 1 1 2 2 3 3 3 3 2 1 1 2 1 1 1 0 1 2
8 9 9 9 9 9 9 8 8 8 8 7 7 6 5 4 2 1 1 1 1 1 1 1 0 1 1 2 2 2 2 2 2 2 1 1 1 1 1 1 1 1 0
8 8 9 9 8 8 8 8 8 8 8 8 7 6 6 5 4 2 0 1 1 1 2 2 2 3 4 4 3 3 3 3 2 2 1 1 1 1 1 1 1 1 2
7 8 7 7 7 7 8 8 8 8 9 8 8 8 8 6 6 5 3 1 0 1 1 1 2 4 6 5 3 3 4 3 2 2 1 1 1 1 1 0 1 1 2
6 6 6 6 7 7 7 7 8 8 8 9 9 9 9 9 13 13 7 4 3 2 2 1 1 2 5 6 7 7 6 4 3 3 1 1 0 0 0 1 1 2 2
6 6 6 6 6 6 6 6 7 6 7 8 9 9 9 11 16 15 14 6 5 5 3 2 2 2 3 3 5 6 4 4 5 4 3 2 1 0 1 2 2 3 3
5 5 6 6 6 5 5 6 5 5 5 6 7 8 8 11 16 15 13 7 6 6 5 4 2 3 2 3 4 4 3 3 3 3 3 2 2 1 2 2 3 4 4
4 5 5 5 5 5 5 5 4 4 5 5 5 7 7 9 15 14 11 5 5 6 5 5 4 3 3 5 4 4 4 3 4 6 6 6 6 5 4 3 3 3 3
3 3 4 5 5 5 5 4 4 4 4 4 6 6 6 7 13 14 11 3 4 4 4 5 7 6 5 5 4 4 4 3 4 5 6 7 7 8 9 4 3 3 3
1 3 4 4 5 5 5 4 4 4 5 5 5 5 6 8 10 13 11 3 3 3 3 3 4 7 6 5 4 3 4 5 4 5 5 5 5 5 6 6 5 4 4
3 4 4 5 4 4 5 5 5 5 5 6 6 6 5 6 9 11 12 8 5 2 2 2 3 5 5 5 4 5 7 7 4 4 5 4 5 5 6 7 9 9 8
4 4 4 5 5 4 5 5 5 5 4 5 5 6 6 6 7 14 13 11 8 3 2 3 3 6 6 5 5 7 6 4 4 5 5 4 3 3 4 4 6 7 10
4 4 3 4 4 4 4 4 4 4 4 4 5 5 6 6 6 7 6 6 6 5 3 5 8 9 6 5 6 5 4 3 4 4 4 3 3 3 3 3 3 3 5
3 3 3 3 3 3 3 2 2 2 2 2 2 3 4 6 8 11 7 6 5 4 3 3 4 4 4 4 4 4 4 4 4 3 4 4 4 4 3 3 3 4 4
3 2 2 2 1 1 1 2 1 1 3 4 4 4 3 6 10 12 13 14 13 10 6 4 5 5 5 4 4 4 4 4 4 4 4 4 4 5 5 4 4 5 5
3 3 2 2 1 1 0 1 2 3 4 5 7 8 7 10 12 12 11 11 14 11 7 6 5 5 5 4 4 4 4 4 4 5 5 5 5 5 4 4 4 4 4
3 3 3 2 2 1 1 1 1 1 2 3 4 7 8 9 11 12 11 7 7 8 5 5 5 5 5 4 4 4 4 4 4 5 5 4 4 4 4 4 3 3 3
2 2 2 2 2 1 1 1 0 1 1 2 2 3 6 6 8 11 9 5 4 5 5 5 4 4 4 4 4 4 4 4 4 4 4 4 4 4 4 3 3 4 3
2 4 4 2 2 2 2 1 1 1 1 1 1 2 2 3 4 5 4 4 3 3 4 4 4 4 4 4 4 4 4 4 4 4 4 3 3 3 4 3 3 3 2
1 2 4 3 2 3 2 3 2 2 2 2 2 2 1 1 1 1 2 2 2 2 2 3 3 3 3 3 3 4 4 3 3 3 3 3 3 3 3 3 3 3 3
1 1 2 3 3 3 3 3 3 3 3 3 2 1 2 2 1 1 0 0 0 0 1 1 2 2 2 2 2 2 3 3 3 3 3 3 3 3 3 3 3 3 3
1 2 2 3 3 4 3 3 3 3 3 3 3 2 2 2 2 2 2 2 1 1 1 1 1 1 1 1 1 1 2 2 1 2 3 3 3 3 3 3 3 3 3
2 2 3 3 3 3 4 4 4 4 4 4 4 4 4 3 3 4 3 3 3 2 2 2 2 2 2 1 1 0 0 1 1 1 3 4 4 3 3 3 3 3 3
2 3 3 3 3 4 4 4 4 4 4 4 4 4 4 4 4 4 4 4 4 3 3 3 2 2 3 3 2 2 2 2 2 2 3 4 4 4 3 3 3 3 3
3 3 3 3 3 3 4 4 5 5 5 5 5 4 5 5 5 5 4 4 4 4 4 3 4 4 4 3 3 3 3 3 4 5 4 4 4 4 4 3 4 3 4
Wind_Direction
8 10 19 19 19 25 28 22 19 20 23 29 38 44 47 48 46 56 58 62 100 116 118 121 123 142 158 162 160 158 160 154 190 250 268 292 302 315 341 319 228 218 230
13 20 25 23 26 30 29 25 25 30 30 31 34 39 35 35 52 79 80 74 81 89 90 92 77 103 136 153 158 165 166 169 171 215 280 305 303 321 327 340 359 201 207
18 26 28 27 31 33 32 30 31 32 32 32 35 33 24 17 22 34 124 123 117 122 126 121 109 152 193 168 152 152 151 155 155 174 244 303 319 339 6 20 36 27 243
20 26 28 26 28 30 30 31 31 34 35 31 29 24 17 17 19 12 349 174 184 205 204 190 190 196 195 174 157 153 139 132 134 144 193 302 312 325 35 50 39 36 32
20 23 19 18 23 28 30 30 32 35 35 28 30 25 19 21 23 25 26 51 131 179 189 184 182 190 187 170 154 149 138 127 123 122 119 56 7 11 26 35 97 78 56
21 16 12 18 23 25 27 30 34 31 26 30 29 25 27 26 29 37 40 38 37 45 58 85 148 169 177 165 155 152 150 144 144 136 131 123 65 351 4 59 106 106 87
19 15 13 18 25 22 30 37 34 27 27 30 26 24 22 20 28 32 38 40 37 33 30 37 70 63 84 110 127 130 136 140 143 143 138 148 145 164 120 80 74 79 78
19 19 15 19 23 24 35 38 32 28 30 28 27 22 21 20 25 28 30 30 34 31 27 31 60 63 61 91 100 102 96 96 113 110 120 128 133 129 121 116 110 95 78
17 21 18 21 25 28 33 29 25 36 36 31 25 23 20 9 17 24 29 13 21 21 18 26 46 59 75 115 120 123 107 88 96 104 101 92 89 94 110 107 100 94 76
8 31 34 35 36 33 31 31 31 41 36 28 26 18 14 4 8 17 24 15 13 7 9 16 28 40 58 106 127 133 127 117 113 95 76 65 62 61 63 76 115 114 110
77 73 55 45 48 43 41 37 38 37 34 27 20 9 8 6 3 13 18 14 3 358 4 6 5 25 48 73 102 124 137 131 113 104 92 77 65 59 54 54 59 89 103
104 84 66 50 45 46 48 41 35 33 34 22 13 7 1 357 359 6 15 19 18 5 351 348 352 24 57 76 83 104 115 112 104 100 94 85 79 76 71 68 68 65 64
106 93 81 68 53 46 49 43 35 30 31 21 16 8 355 351 355 5 10 15 19 25 357 6 53 59 62 60 76 90 94 97 104 103 103 94 84 91 88 79 68 70 62
117 110 98 84 65 49 47 46 45 33 27 21 15 3 350 348 355 358 358 1 7 24 31 54 71 70 64 61 64 65 71 94 108 108 105 90 74 75 70 69 75 66 63
122 122 111 99 89 62 49 41 42 18 11 15 353 343 349 351 351 8 19 13 13 28 50 56 56 59 63 62 60 61 65 78 87 88 99 97 88 80 58 44 60 66 79
136 144 142 133 115 84 30 358 336 314 1 27 24 21 347 0 8 22 26 29 32 41 56 55 56 59 64 68 74 73 69 76 82 91 90 91 92 90 80 64 67 81 89
162 164 161 162 169 188 333 356 347 346 12 32 28 33 37 27 26 24 26 34 35 39 52 49 51 54 58 62 67 75 73 65 73 84 89 90 93 91 90 85 83 83 82
159 170 170 184 197 211 234 273 335 359 354 344 358 22 38 40 34 28 25 39 37 36 41 45 46 49 55 62 67 74 75 71 73 79 83 84 89 94 91 88 86 93 89
170 180 180 184 192 199 199 189 150 7 357 340 345 358 17 29 33 30 33 45 45 37 33 36 37 43 49 56 63 68 74 76 78 80 81 83 87 92 92 89 88 85 79
206 212 185 180 189 190 190 188 197 237 290 315 326 325 350 29 26 13 24 34 44 40 34 36 33 38 44 51 59 68 74 74 76 77 80 82 83 89 100 100 95 88 75
228 231 198 181 200 205 205 208 208 214 238 260 269 270 221 104 65 30 27 32 44 49 44 44 40 38 40 47 59 73 81 81 84 91 94 93 96 92 92 94 95 96 101
237 229 210 207 212 211 212 210 207 216 231 242 255 276 181 149 164 170 176 198 74 83 83 86 72 56 48 48 62 89 96 97 100 109 112 111 109 111 110 106 104 102 105
283 260 239 225 215 220 217 214 214 220 228 231 230 227 213 203 201 201 204 202 197 196 172 138 120 98 74 60 52 90 124 130 130 139 140 135 131 130 128 128 130 122 120
288 276 256 242 224 216 218 223 223 226 228 228 224 219 215 210 204 202 198 194 195 199 195 185 182 179 160 141 115 97 149 194 182 156 153 147 142 138 133 127 127 126 125
271 274 264 253 240 229 226 226 227 228 230 227 223 219 214 206 203 197 189 188 193 203 207 198 191 191 194 193 202 230 250 240 195 161 141 139 143 143 140 138 137 131 131
249 261 260 255 248 238 230 230 230 228 228 228 223 218 211 206 203 197 187 185 191 201 207 206 208 204 204 210 236 260 273 256 195 169 150 142 144 147 142 138 142 139 140